YAMAL 601

Last updated on Jan. 29, 2020, 4:37 a.m. UTC

1 44307U 19031A   20028.79628786  .00000119  00000-0  00000-0 0  9998
2 44307   0.0234 106.4612 0001946 213.0868 143.6006  1.00271611  2558
UTC
Height (km)
Latitude
Longitude
Inclination
Orbital Period
UTC large
Height (km)
Speed (km/s)
/
Latitude / Longitude
Inclination (degrees)
Orbital Period (minutes)
Azimuth
Elevation
Range (km)
Doppler Factor
iOS Compass Heading
iOS Angle

Next 30 passes for location: Hong Kong

Rise time Rise Azimuth (degrees) Set time Set Azimuth (degrees) Duration Max altitude (degrees)

No matching passes for this satellites